Вернуться в каталог

ZHIHUI TIANWANG-1 01B

АктивенСвязьHEO
NORAD 59706·PAYLOAD·🇨🇳 China

Запущен May 9, 2024 с Xichang Satellite Launch Center

Loading…

Ближайшие Пролёты (ближайшие 24 часа)

TLE

СвежийSource: Space-Track

Эпоха: Sep 13, 2026, 21:06 UTC

1 59706U 24087B   26256.87957495  .00000006  00000-0  00000-0 0  9999
2 59706  53.1270 166.9266 0027237 202.0464 157.8763  2.00561154 16730

Отслеживайте ZHIHUI TIANWANG-1 01B в реальном времени с AllMySat

Download on the App Store